Tracking 25710 objects as of 5-Jul-2022
HD Live streaming from Space Station
objects crossing your sky now

STARLINK-3189

Track STARLINK-3189 now!
10-day predictions
STARLINK-3189 is classified as:


NORAD ID: 51464
Int'l Code: 2022-010J
Perigee: 545.3 km
Apogee: 548.4 km
Inclination: 53.2 °
Period: 95.4 minutes
Semi major axis: 6917 km
RCS: Unknown
Launch date: February 3, 2022
Source: United States (US)
Launch site: AIR FORCE EASTERN TEST RANGE (AFETR)
aabbcc
Your satellite tracking list
Your tracking list is empty




NASA's NSSDC Master Catalog

Two Line Element Set (TLE):
1 51464U 22010J   22185.74780304  .00000535  00000-0  51732-4 0  9991
2 51464  53.2167 192.3068 0002237  43.7774 316.3395 15.08841776 24431
Source of the keplerian elements: AFSPC